NPSAT-1

operational
NORAD ID: 44340 Int'l Des: 2019-036 Owner: USNPS Country: US
LEOCIRCULAR

关于 NPSAT-1

正在加载描述...

实时位置

正在加载3D地球...

即将过境

高度历史

Altitude vs Time

uPlot chart will show altitude changes over time

两行轨道根数

1 44340U 19036B 26062.64700374 .00009575 00000-0 14069-2 0 9999
2 44340 23.9983 184.5622 0008378 97.4936 262.6512 14.73412183356904
Epoch: Mar 3, 2026 • Age: 39 hours

当前状态

高度 651.5 km
速度 7.53 km/s
星下点 -11.88°S, 4.7°W
发射日期 Jun 25, 2019
运行时间 6.6 years
类型 other

技术详情

分类 Payload
质量 83.00 kg
干质量 83.00 kg
总质量 83.00 kg
长度 0.80 m
直径 0.40 m
跨度 0.80 m
形状 Cyl + 2 booms
制造商 USNPS
平台类型 NPSAT
阶段状态 In Orbit
所有者/国家 USNPS/US

大型星座

Loading constellations...